FENGYUN 1C DEB, 32409

Orbit data source: Space-Track

FENGYUN 1C DEB, 32409 is space debris in SSO originally from a launch on Mon, 10 May 1999 UTC launched from the Taiyaun Space Center, China (TSC). Fengyun 1C debris stems from the Chinese weather satellite Fengyun-1C, which was intentionally destroyed by a Chinese anti-satellite missile in 2007. This event dramatically increased the amount of space debris, with thousands of trackable fragments posing hazards to satellites and human spaceflight. The Fengyun 1C debris cloud has become a focal point in discussions about space sustainability and the need for international regulations to prevent the creation of new debris.

Loading next visibility...
Identifier
32409, 1999-025CZV
Orbit
SSO
Country
Flag of CNCN / PRC
Related business
Manufacturer
Unknown
Mission
Spacecraft
Bus & Motor
Unknown
Mass
Unknown
Launch date (UTC)
1999-05-10 (27 years ago)
Launch vehicle
Unknown
Launch site
Taiyaun Space Center, China (TSC)
Object type
Payload
Rocket body
Debris
Shape & HBR
Unknown shape, 0.1 m
Radar Cross Section
Small (<0.1 m²)

Expand to show TLE details & history
Last TLE update: 20 hours ago

TLE from 20 hours ago
0 FENGYUN 1C DEB
1 32409U 99025CZV 26145.32135125  .00011888  00000-0  14948-2 0  9997
2 32409  99.5704 345.0957 0036192  11.5237 168.3615 14.81817105612574
Epoch: 2026-05-25T07:42Z
TLE epoch observation values (Epoch: 2026-05-25T07:42:44.747Z)
Latitude
-0.0883°
Longitude
166.48362°
Altitude
651.403 km
Speed
7.519 km/s
True Right ascension
11h 00m 19s
True Declination
0° 05' 16"
Sunlit
Object was in daylight at epoch
Visualization orbit readout
Latitude
Unknown
Longitude
Unknown
Altitude
Unknown
Speed
Unknown
Apparent Right ascension
Unknown
Apparent Declination
Unknown
Sunlit
N/A
Visualization observer readout
Local Sidereal Time
13:02:10
Azimuth
Unknown
Elevation
Unknown
Doppler factor
Unknown
Orbital elements
Apogee altitude
646.045 km
Perigee altitude
595.385 km
Semi-major axis
6,998.852 km
Eccentricity
0.00362
Inclination
99.5704°
RAAN
345.0957°
Arg. of periapsis
11.5237°
True anomaly
168.4448°
Mean anomaly
168.3615°
Eccentric anomaly
168.40319°
Mean motion
3.70683 °/min
Orbital period
97.12 mins
BSTAR
0.0014948
Loading maneuver chart data...
Computing Atmospheric mass density...
Loading historical data...
Loading historical data...
Loading historical data...
Loading historical data...
Loading historical data...
Loading historical data...
Loading historical data...

Documentation

Showing up to 5 results
|